Location: Copper Breaks State Park
(34.1132°N, 99.7492°W)
Time: 16:46:17
(UTC-05:00)

SL-16 R/B - Visible Passes

Search period start: 31 May 2016 00:00
Search period end: 10 June 2016 00:00
Orbit: 986 x 1006 km, 99.3° (Epoch: 30 May)

Date Brightness Start Highest point End Pass type
(mag) Time Alt. Az. Time Alt. Az. Time Alt. Az.
31 May 3.0 04:11:51 10° SSE 04:17:59 62° ENE 04:24:10 10° N visible
31 May 3.9 05:58:01 10° SW 06:01:56 17° W 06:05:55 10° NW visible
01 Jun 5.0 03:02:25 10° E 03:05:53 16° ENE 03:09:22 10° NNE visible
01 Jun 2.5 04:42:34 10° S 04:48:46 75° WSW 04:55:03 10° NNW visible
02 Jun 4.3 03:31:09 10° ESE 03:36:19 28° ENE 03:41:29 10° N visible
02 Jun 3.0 05:13:52 10° SSW 05:19:40 40° W 05:25:32 10° NNW visible
03 Jun 3.3 04:00:56 10° SE 04:06:55 50° ENE 04:12:56 10° N visible
03 Jun 3.7 05:46:04 10° SW 05:50:43 22° W 05:55:25 10° NW visible
04 Jun 5.2 02:52:34 10° E 02:54:57 12° ENE 02:57:19 10° NE visible
04 Jun 2.5 04:31:23 10° SSE 04:37:39 89° ENE 04:43:56 10° NNW visible
05 Jun 4.6 03:20:37 10° ESE 03:25:20 23° ENE 03:30:02 10° NNE visible
05 Jun 2.7 05:02:32 10° S 05:08:31 50° W 05:14:35 10° NNW visible
06 Jun 3.7 03:50:05 10° SE 03:55:51 41° ENE 04:01:39 10° N visible
06 Jun 3.5 05:34:20 10° SSW 05:39:31 27° W 05:44:44 10° NW visible
07 Jun 2.7 04:20:19 10° SSE 04:26:33 74° ENE 04:32:48 10° N visible
08 Jun 4.9 03:10:13 10° ESE 03:14:20 19° ENE 03:18:27 10° NNE visible
08 Jun 2.6 04:51:15 10° S 04:57:22 62° WSW 05:03:35 10° NNW visible
09 Jun 4.1 03:39:21 10° SE 03:44:50 33° ENE 03:50:19 10° N visible
09 Jun 3.2 05:22:45 10° SSW 05:28:19 34° W 05:33:55 10° NW visible
